Location: ??????
(41.3164°N, 22.6615°E)
Time: 02:55:27
(UTC+00:00)

CANX-2 - Pass Details

Date: 17 August 2022
Orbit: 591 x 608 km, 97.7° (Epoch: 03 October)

Event Time Altitude Azimuth Distance (km) Brightness Sun altitude
Rises 02:34:18 0° 7° (N) 2,855 ? -12.1°
Reaches altitude 10° 02:36:30 10° 3° (N) 1,951 ? -11.7°
Maximum altitude 02:40:38 54° 287° (WNW) 735 ? -11.1°
Drops below altitude 10° 02:44:46 10° 209° (SSW) 1,947 ? -10.4°
Enters shadow 02:44:52 - 209° (SSW) 1,990 ? -10.4°
